| time (UTC) | temp C | wind direction | speed KPH | gust KPH | rain 1hr cm | rain 24hr cm | rain mn cm | humidity % | barometer mb |
| 20260505041301 | 13 | 304 | 3.2 | 0.0 | 0.00 | 0.00 | 0.00 | 66 | 1014.8 |
| 20260505040803 | 13 | 301 | 3.2 | 9.7 | 0.00 | 0.00 | 0.00 | 66 | 1014.8 |
| 20260505040302 | 13 | 300 | 0.0 | 12.9 | 0.00 | 0.00 | 0.00 | 67 | 1014.8 |
| 20260505035801 | 13 | 299 | 0.0 | 0.0 | 0.00 | 0.00 | 0.00 | 66 | 1014.8 |
| 20260505035301 | 13 | 301 | 0.0 | 0.0 | 0.00 | 0.00 | 0.00 | 65 | 1014.8 |
| 20260505034802 | 13 | 301 | 0.0 | 0.0 | 0.00 | 0.00 | 0.00 | 65 | 1014.8 |
| 20260505034302 | 13 | 301 | 0.0 | 0.0 | 0.00 | 0.00 | 0.00 | 64 | 1014.8 |
| 20260505033801 | 13 | 301 | 0.0 | 0.0 | 0.00 | 0.00 | 0.00 | 64 | 1014.8 |
| 20260505033302 | 13 | 300 | 0.0 | 0.0 | 0.00 | 0.00 | 0.00 | 63 | 1014.8 |
| 20260505032801 | 14 | 6 | 0.0 | 0.0 | 0.00 | 0.00 | 0.00 | 63 | 1014.9 |
| 20260505032304 | 13 | 320 | 1.6 | 0.0 | 0.00 | 0.00 | 0.00 | 63 | 1014.9 |
| 20260505031801 | 13 | 333 | 1.6 | 0.0 | 0.00 | 0.00 | 0.00 | 63 | 1014.9 |
| 20260505031302 | 13 | 318 | 1.6 | 3.2 | 0.00 | 0.00 | 0.00 | 64 | 1015.1 |
| 20260505030801 | 13 | 311 | 1.6 | 11.3 | 0.00 | 0.00 | 0.00 | 65 | 1015.1 |
| 20260505030303 | 13 | 299 | 0.0 | 9.7 | 0.00 | 0.00 | 0.00 | 66 | 1015.1 |
| 20260505025301 | 12 | 270 | 0.0 | 0.0 | 0.00 | 0.00 | 0.00 | 67 | 1015.3 |
| 20260505024803 | 12 | 302 | 0.0 | 0.0 | 0.00 | 0.00 | 0.00 | 67 | 1015.3 |
| 20260505024301 | 12 | 303 | 0.0 | 0.0 | 0.00 | 0.00 | 0.00 | 67 | 1015.2 |
| 20260505023802 | 12 | 290 | 0.0 | 0.0 | 0.00 | 0.00 | 0.00 | 67 | 1015.2 |
| 20260505023302 | 12 | 290 | 0.0 | 0.0 | 0.00 | 0.00 | 0.00 | 66 | 1015.2 |
| 20260505022304 | 12 | 290 | 0.0 | 0.0 | 0.00 | 0.00 | 0.00 | 66 | 1015.3 |
| 20260505021802 | 12 | 290 | 0.0 | 3.2 | 0.00 | 0.00 | 0.00 | 65 | 1015.3 |
| 20260505021301 | 12 | 290 | 0.0 | 0.0 | 0.00 | 0.00 | 0.00 | 65 | 1015.5 |
| 20260505015802 | 13 | 295 | 0.0 | 0.0 | 0.00 | 0.00 | 0.00 | 63 | 1015.5 |
| 20260505015303 | 13 | 296 | 0.0 | 0.0 | 0.00 | 0.00 | 0.00 | 63 | 1015.5 |
| 20260505014801 | 13 | 298 | 0.0 | 0.0 | 0.00 | 0.00 | 0.00 | 62 | 1015.5 |
| 20260505013802 | 13 | 302 | 1.6 | 0.0 | 0.00 | 0.00 | 0.00 | 60 | 1015.7 |
| 20260505012803 | 13 | 328 | 0.0 | 8.0 | 0.00 | 0.00 | 0.00 | 61 | 1015.8 |
| 20260505011801 | 13 | 296 | 0.0 | 0.0 | 0.00 | 0.00 | 0.00 | 63 | 1015.8 |
| 20260505010802 | 13 | 200 | 0.0 | 0.0 | 0.00 | 0.00 | 0.00 | 64 | 1016.0 |
| 20260505010302 | 13 | 230 | 0.0 | 0.0 | 0.00 | 0.00 | 0.00 | 64 | 1016.0 |
| 20260505005802 | 13 | 225 | 0.0 | 0.0 | 0.00 | 0.00 | 0.00 | 65 | 1016.2 |
| 20260505005303 | 13 | 216 | 0.0 | 0.0 | 0.00 | 0.00 | 0.00 | 66 | 1016.2 |
| 20260505004802 | 12 | 260 | 0.0 | 0.0 | 0.00 | 0.00 | 0.00 | 67 | 1016.2 |
| 20260505004302 | 12 | 225 | 0.0 | 0.0 | 0.00 | 0.00 | 0.00 | 67 | 1016.4 |
| 20260505003802 | 12 | 226 | 0.0 | 0.0 | 0.00 | 0.00 | 0.00 | 67 | 1016.4 |
| 20260505003301 | 13 | 227 | 0.0 | 0.0 | 0.00 | 0.00 | 0.00 | 67 | 1016.4 |
| 20260505002803 | 13 | 225 | 0.0 | 0.0 | 0.00 | 0.00 | 0.00 | 66 | 1016.4 |
| 20260505002304 | 13 | 225 | 0.0 | 0.0 | 0.00 | 0.00 | 0.00 | 64 | 1016.4 |
| 20260505001802 | 13 | 226 | 0.0 | 0.0 | 0.00 | 0.00 | 0.00 | 64 | 1016.4 |
| 20260505001301 | 13 | 226 | 0.0 | 0.0 | 0.00 | 0.00 | 0.00 | 63 | 1016.6 |
| 20260505000802 | 13 | 226 | 0.0 | 0.0 | 0.00 | 0.00 | 0.00 | 63 | 1016.6 |
| 20260505000302 | 13 | 226 | 0.0 | 0.0 | 0.00 | 0.00 | 0.00 | 62 | 1016.6 |
| 20260504235304 | 13 | 226 | 0.0 | 0.0 | 0.00 | 0.00 | 0.00 | 63 | 1016.5 |
| 20260504234801 | 13 | 226 | 0.0 | 0.0 | 0.00 | 0.00 | 0.00 | 62 | 1016.5 |
| 20260504234302 | 13 | 226 | 0.0 | 0.0 | 0.00 | 0.00 | 0.00 | 62 | 1016.7 |
| 20260504233802 | 13 | 226 | 0.0 | 0.0 | 0.00 | 0.00 | 0.00 | 62 | 1016.7 |
| 20260504233303 | 13 | 230 | 0.0 | 0.0 | 0.00 | 0.00 | 0.00 | 62 | 1016.7 |
| 20260504232802 | 13 | 230 | 0.0 | 0.0 | 0.00 | 0.00 | 0.00 | 61 | 1016.8 |
| 20260504232303 | 13 | 230 | 0.0 | 0.0 | 0.00 | 0.00 | 0.00 | 61 | 1016.8 |
| 20260504231802 | 14 | 230 | 0.0 | 0.0 | 0.00 | 0.00 | 0.00 | 61 | 1016.8 |
| 20260504231301 | 14 | 230 | 0.0 | 0.0 | 0.00 | 0.00 | 0.00 | 60 | 1016.9 |
| 20260504230303 | 14 | 228 | 0.0 | 0.0 | 0.00 | 0.00 | 0.00 | 60 | 1016.9 |
| 20260504225802 | 14 | 228 | 0.0 | 0.0 | 0.00 | 0.00 | 0.00 | 59 | 1017.1 |
| 20260504225304 | 14 | 229 | 0.0 | 0.0 | 0.00 | 0.00 | 0.00 | 59 | 1017.1 |
| 20260504224802 | 14 | 230 | 0.0 | 0.0 | 0.00 | 0.00 | 0.00 | 59 | 1017.1 |
| 20260504224301 | 14 | 230 | 0.0 | 0.0 | 0.00 | 0.00 | 0.00 | 58 | 1017.1 |
| 20260504223802 | 14 | 230 | 0.0 | 0.0 | 0.00 | 0.00 | 0.00 | 57 | 1017.1 |
| 20260504223302 | 14 | 230 | 0.0 | 0.0 | 0.00 | 0.00 | 0.00 | 57 | 1017.1 |
| 20260504222801 | 14 | 234 | 0.0 | 0.0 | 0.00 | 0.00 | 0.00 | 57 | 1017.2 |
| 20260504222304 | 14 | 233 | 0.0 | 0.0 | 0.00 | 0.00 | 0.00 | 56 | 1017.2 |
| 20260504221801 | 15 | 230 | 0.0 | 0.0 | 0.00 | 0.00 | 0.00 | 56 | 1017.2 |
| 20260504221302 | 15 | 231 | 0.0 | 0.0 | 0.00 | 0.00 | 0.00 | 56 | 1017.3 |
| 20260504220802 | 15 | 235 | 0.0 | 0.0 | 0.00 | 0.00 | 0.00 | 55 | 1017.3 |
| 20260504220302 | 15 | 227 | 0.0 | 0.0 | 0.00 | 0.00 | 0.00 | 55 | 1017.3 |
| 20260504215802 | 15 | 231 | 0.0 | 0.0 | 0.00 | 0.00 | 0.00 | 55 | 1017.3 |
| 20260504214801 | 15 | 231 | 0.0 | 0.0 | 0.00 | 0.00 | 0.00 | 55 | 1017.3 |
| 20260504214303 | 15 | 231 | 0.0 | 0.0 | 0.00 | 0.00 | 0.00 | 55 | 1017.5 |
| 20260504213801 | 15 | 231 | 0.0 | 0.0 | 0.00 | 0.00 | 0.00 | 55 | 1017.5 |
| 20260504213302 | 15 | 232 | 0.0 | 0.0 | 0.00 | 0.00 | 0.00 | 55 | 1017.5 |
| 20260504212802 | 15 | 232 | 0.0 | 0.0 | 0.00 | 0.00 | 0.00 | 55 | 1017.5 |
| 20260504212303 | 15 | 232 | 0.0 | 0.0 | 0.00 | 0.00 | 0.00 | 55 | 1017.5 |
| 20260504211802 | 15 | 234 | 0.0 | 0.0 | 0.00 | 0.00 | 0.00 | 55 | 1017.5 |
| 20260504211302 | 15 | 225 | 0.0 | 0.0 | 0.00 | 0.00 | 0.00 | 55 | 1017.6 |
| 20260504210802 | 15 | 224 | 0.0 | 0.0 | 0.00 | 0.00 | 0.00 | 56 | 1017.6 |
| 20260504210302 | 15 | 224 | 0.0 | 0.0 | 0.00 | 0.00 | 0.00 | 55 | 1017.6 |
| 20260504205803 | 15 | 224 | 0.0 | 0.0 | 0.00 | 0.00 | 0.00 | 55 | 1017.5 |
| 20260504204802 | 16 | 224 | 0.0 | 0.0 | 0.00 | 0.00 | 0.00 | 55 | 1017.5 |
| 20260504204301 | 16 | 223 | 0.0 | 0.0 | 0.00 | 0.00 | 0.00 | 54 | 1017.5 |
| 20260504203802 | 16 | 223 | 0.0 | 0.0 | 0.00 | 0.00 | 0.00 | 54 | 1017.5 |
| 20260504203302 | 16 | 223 | 0.0 | 0.0 | 0.00 | 0.00 | 0.00 | 53 | 1017.5 |
| 20260504202802 | 16 | 223 | 0.0 | 0.0 | 0.00 | 0.00 | 0.00 | 52 | 1017.3 |
| 20260504202304 | 17 | 223 | 0.0 | 0.0 | 0.00 | 0.00 | 0.00 | 51 | 1017.3 |
| 20260504201802 | 17 | 230 | 0.0 | 0.0 | 0.00 | 0.00 | 0.00 | 50 | 1017.3 |
| 20260504201302 | 17 | 253 | 0.0 | 0.0 | 0.00 | 0.00 | 0.00 | 49 | 1017.3 |
| 20260504200302 | 17 | 270 | 1.6 | 0.0 | 0.00 | 0.00 | 0.00 | 48 | 1017.3 |
| 20260504194802 | 18 | 208 | 0.0 | 11.3 | 0.00 | 0.00 | 0.00 | 48 | 1017.1 |
| 20260504193802 | 18 | 210 | 0.0 | 0.0 | 0.00 | 0.00 | 0.00 | 47 | 1017.0 |
| 20260504193303 | 18 | 200 | 0.0 | 0.0 | 0.00 | 0.00 | 0.00 | 47 | 1017.0 |
| 20260504192802 | 18 | 202 | 0.0 | 8.0 | 0.00 | 0.00 | 0.00 | 46 | 1017.0 |
| 20260504192304 | 18 | 201 | 3.2 | 0.0 | 0.00 | 0.00 | 0.00 | 46 | 1017.0 |
| 20260504191801 | 18 | 206 | 3.2 | 9.7 | 0.00 | 0.00 | 0.00 | 45 | 1017.0 |
| 20260504191302 | 18 | 200 | 3.2 | 8.0 | 0.00 | 0.00 | 0.00 | 45 | 1016.8 |
| 20260504190803 | 18 | 200 | 3.2 | 11.3 | 0.00 | 0.00 | 0.00 | 45 | 1016.8 |
| 20260504190307 | 18 | 207 | 3.2 | 11.3 | 0.00 | 0.00 | 0.00 | 46 | 1016.8 |
| 20260504185802 | 18 | 195 | 3.2 | 9.7 | 0.00 | 0.00 | 0.00 | 45 | 1016.7 |
| 20260504185304 | 19 | 213 | 3.2 | 1.6 | 0.00 | 0.00 | 0.00 | 45 | 1016.7 |
| 20260504184802 | 19 | 216 | 3.2 | 11.3 | 0.00 | 0.00 | 0.00 | 45 | 1016.7 |
| 20260504184304 | 19 | 209 | 1.6 | 11.3 | 0.00 | 0.00 | 0.00 | 44 | 1016.7 |
| 20260504183802 | 19 | 198 | 1.6 | 11.3 | 0.00 | 0.00 | 0.00 | 44 | 1016.7 |
| 20260504183302 | 20 | 193 | 3.2 | 9.7 | 0.00 | 0.00 | 0.00 | 44 | 1016.7 |
| 20260504182802 | 20 | 212 | 3.2 | 16.1 | 0.00 | 0.00 | 0.00 | 43 | 1016.5 |
| 20260504181802 | 20 | 157 | 3.2 | 14.5 | 0.00 | 0.00 | 0.00 | 43 | 1016.5 |
| 20260504181302 | 20 | 203 | 3.2 | 12.9 | 0.00 | 0.00 | 0.00 | 44 | 1016.4 |
| 20260504180802 | 20 | 221 | 3.2 | 0.0 | 0.00 | 0.00 | 0.00 | 43 | 1016.4 |
| 20260504180301 | 20 | 221 | 3.2 | 0.0 | 0.00 | 0.00 | 0.00 | 43 | 1016.4 |
| 20260504175803 | 20 | 221 | 3.2 | 0.0 | 0.00 | 0.00 | 0.00 | 43 | 1016.3 |
| 20260504175304 | 20 | 216 | 3.2 | 8.0 | 0.00 | 0.00 | 0.00 | 43 | 1016.3 |
| 20260504174804 | 20 | 206 | 3.2 | 12.9 | 0.00 | 0.00 | 0.00 | 44 | 1016.3 |
| 20260504174302 | 20 | 211 | 1.6 | 14.5 | 0.00 | 0.00 | 0.00 | 44 | 1016.2 |
| 20260504173302 | 20 | 216 | 0.0 | 8.0 | 0.00 | 0.00 | 0.00 | 43 | 1016.2 |
| 20260504172802 | 21 | 193 | 0.0 | 11.3 | 0.00 | 0.00 | 0.00 | 43 | 1016.1 |
| 20260504172304 | 21 | 211 | 1.6 | 0.0 | 0.00 | 0.00 | 0.00 | 42 | 1016.1 |
| 20260504171805 | 21 | 199 | 1.6 | 0.0 | 0.00 | 0.00 | 0.00 | 42 | 1016.1 |
| 20260504171305 | 21 | 203 | 3.2 | 8.0 | 0.00 | 0.00 | 0.00 | 41 | 1016.4 |
| 20260504170805 | 21 | 199 | 3.2 | 11.3 | 0.00 | 0.00 | 0.00 | 40 | 1016.4 |
| 20260504170302 | 22 | 208 | 3.2 | 22.5 | 0.00 | 0.00 | 0.00 | 40 | 1016.4 |
| 20260504150805 | 25 | 169 | 1.6 | 12.9 | 0.00 | 0.00 | 0.00 | 33 | 1016.0 |
| 20260504150304 | 25 | 159 | 1.6 | 4.8 | 0.00 | 0.00 | 0.00 | 32 | 1016.0 |
| 20260504140808 | 25 | 222 | 1.6 | 16.1 | 0.00 | 0.00 | 0.00 | 30 | 1016.3 |
| 20260504130805 | 24 | 84 | 3.2 | 19.3 | 0.00 | 0.00 | 0.00 | 32 | 1016.9 |
| 20260504130305 | 24 | 118 | 3.2 | 11.3 | 0.00 | 0.00 | 0.00 | 33 | 1016.9 |
| 20260504120306 | 24 | 189 | 3.2 | 16.1 | 0.00 | 0.00 | 0.00 | 34 | 1017.2 |
| 20260504110303 | 24 | 110 | 4.8 | 14.5 | 0.00 | 0.00 | 0.00 | 36 | 1017.5 |
| 20260504100303 | 22 | 89 | 3.2 | 19.3 | 0.00 | 0.00 | 0.00 | 40 | 1018.2 |
| 20260504081802 | 18 | 68 | 0.0 | 0.0 | 0.00 | 0.00 | 0.00 | 48 | 1019.0 |
| 20260504081303 | 18 | 105 | 0.0 | 0.0 | 0.00 | 0.00 | 0.00 | 49 | 1019.2 |
| 20260504080803 | 17 | 27 | 0.0 | 0.0 | 0.00 | 0.00 | 0.00 | 51 | 1019.2 |
| 20260504070302 | 17 | 38 | 0.0 | 0.0 | 0.00 | 0.00 | 0.00 | 52 | 1019.1 |
| 20260504050304 | 14 | 265 | 0.0 | 0.0 | 0.00 | 0.00 | 0.00 | 62 | 1018.9 |
| 20260504045802 | 13 | 261 | 0.0 | 0.0 | 0.00 | 0.00 | 0.00 | 64 | 1018.7 |